Location: Darmstadt
(49.8706°N, 8.6494°E)
Time: 07:08:55
(UTC+01:00)

SJ 16-02 - Pass Details

Date: 31 October 2020
Orbit: 605 x 617 km, 75.0° (Epoch: 03 December)

Event Time Altitude Azimuth Distance (km) Brightness Sun altitude
Rises 18:21:25 0° 350° (N) 2,898 4.8 -13.0°
Reaches altitude 10° 18:25:07 10° 22° (NNE) 1,989 3.7 -13.5°
Enters shadow 18:26:26 12° 39° (NE) 1,865 3.4 -13.8°
